Merida - Lic Manuel Crece, Mexico

2:42 AM EST on August 31, 2016 (GMT -0500)
Lic Manuel Crecencio Rejon

Weather History for MMMD - April, 2014

Change the Weather History Date:

Tuesday, April 8, 2014

  Actual Average Record
Temperature  
Mean Temperature 80 °F -  
Max Temperature 88 °F 95 °F 107 °F (1998)
Min Temperature 73 °F 69 °F 55 °F (2009)
Cooling Degree Days 16    
Growing Degree Days 30 (Base 50)    
Moisture  
Dew Point 65 °F    
Average Humidity 62    
Maximum Humidity 100    
Minimum Humidity 27    
Precipitation  
Precipitation 0.01 in - - ()
Sea Level Pressure  
Sea Level Pressure 29.96 in    
Wind  
Wind Speed 9 mph ()    
Max Wind Speed 22 mph    
Max Gust Speed 37 mph    
Visibility 5.8 miles    
Events Rain    
Averages and records for this station are not official NWS values.
T = Trace of Precipitation, MM = Missing Value Source: Averaged Metar Reports

Daily Weather History Graph

Daily Weather History Graph

Search for Another Location

Airport or City:

Trip Planner

Search our weather history database for the weather conditions in past years. The results will help you decide how hot, cold, wet, or windy it might be!

Date:

Astronomy

Apr. 08, 2014 Rise Set
Actual Time 6:45 AM CDT 7:15 PM CDT
Civil Twilight 6:23 AM CDT 7:37 PM CDT
Nautical Twilight 5:57 AM CDT 8:04 PM CDT
Astronomical Twilight 5:30 AM CDT 8:30 PM CDT
Moon 1:51 PM CDT (4/8) 2:14 AM CDT (4/8)
Length of Visible Light 13h 14m
Length of Day
12h 29m
Waxing Gibbous, 63% of the Moon is Illuminated
Apr 8
Waxing Gibbous
Apr 15
Full
Apr 22
Last Quarter
Apr 29
New
May 6
First Quarter

Hourly Weather History & Observations

Time (CDT) Temp. Heat Index Dew Point Humidity Pressure Visibility Wind Dir Wind Speed Gust Speed Precip Events Conditions
12:50 AM 82 °F - 76 °F 76% 29.84 in 3 mi NNE 2.2 mph - -   Scattered Clouds
12:54 AM 82.4 °F 87.2 °F 71.6 °F 70% 29.82 in 7.0 mi NE 3.5 mph - N/A   Clear
1:54 AM 80.6 °F 85.4 °F 73.4 °F 79% 29.77 in 7.0 mi SE 4.6 mph - N/A   Clear
2:54 AM 78.8 °F - 71.6 °F 78% 29.78 in 7.0 mi SW 6.9 mph - N/A   Clear
3:50 AM 78 °F - 76 °F 90% 29.77 in 3 mi SW 2.2 mph - -  
3:55 AM 77.0 °F - 73.4 °F 89% 29.81 in 7.0 mi SSW 6.9 mph - N/A   Clear
4:53 AM 77.0 °F - 75.2 °F 94% 29.79 in 6.0 mi West 6.9 mph - N/A   Clear
5:50 AM 77.0 °F - 77.0 °F 100% 29.81 in 6.0 mi West 9.2 mph - N/A   Scattered Clouds
6:50 AM 78 °F - 75 °F 89% 29.86 in 6 mi NNW 4.5 mph - -   Mostly Cloudy
6:54 AM 77.0 °F - 73.4 °F 89% 29.86 in 4.0 mi NW 13.8 mph - N/A   Overcast
7:49 AM 78.8 °F - 73.4 °F 83% 29.88 in 5.0 mi North 8.1 mph - N/A   Overcast
8:49 AM 80.6 °F 85.4 °F 73.4 °F 79% 29.90 in 4.0 mi NNW 15.0 mph - N/A   Overcast
9:50 AM 84 °F - 76 °F 71% 29.94 in 6 mi North 6.7 mph - -   Overcast
9:50 AM 82.4 °F 87.2 °F 71.6 °F 70% 29.94 in 5.0 mi NNW 16.1 mph - N/A   Overcast
10:08 AM 84.2 °F 89.6 °F 71.6 °F 66% 29.93 in 5.0 mi NNW 20.7 mph - N/A   Overcast
10:42 AM 84.2 °F 88.4 °F 69.8 °F 62% 29.94 in 5.0 mi NNW 12.7 mph 26.5 mph N/A   Overcast
10:56 AM 80.6 °F 84.6 °F 71.6 °F 74% 29.96 in 4.0 mi NW 8.1 mph 28.8 mph N/A Rain Light Rain
11:20 AM 75.2 °F - 69.8 °F 83% 29.99 in 2.5 mi NNW 15.0 mph 31.1 mph N/A Rain Light Rain
11:42 AM 78.8 °F - 64.4 °F 61% 29.99 in 5.0 mi North 12.7 mph 25.3 mph N/A   Overcast
12:46 PM 82.4 °F 81.7 °F 55.4 °F 39% 30.01 in 7.0 mi North 21.9 mph 33.4 mph N/A   Mostly Cloudy
12:50 PM 83 °F - 63 °F 40% 30.00 in 6 mi North 17.9 mph - - Rain Light Drizzle
1:00 PM 83 °F - 63 °F 40% 30.00 in 6 mi North 17.9 mph - - Rain Light Drizzle
1:44 PM 86.0 °F - 48.2 °F 27% 29.99 in 7.0 mi NNW 13.8 mph 31.1 mph N/A   Mostly Cloudy
2:48 PM 84.2 °F - 48.2 °F 29% 29.99 in 7.0 mi NNW 18.4 mph 36.8 mph N/A   Mostly Cloudy
3:45 PM 84.2 °F - 50.0 °F 30% 29.99 in 7.0 mi NNW 13.8 mph 32.2 mph N/A   Mostly Cloudy
3:50 PM 84 °F - 64 °F 41% 30.00 in 6 mi North 20.1 mph - -   Scattered Clouds
4:50 PM 82.4 °F 81.4 °F 53.6 °F 37% 30.00 in 7.0 mi NNW 13.8 mph 26.5 mph N/A   Mostly Cloudy
5:48 PM 80.6 °F 80.3 °F 53.6 °F 39% 30.01 in 7.0 mi NW 13.8 mph 27.6 mph N/A   Mostly Cloudy
6:50 PM 78 °F - 66 °F 58% 30.06 in 6 mi North 11.2 mph - -   Partly Cloudy
6:50 PM 77.0 °F - 55.4 °F 47% 30.06 in 7.0 mi NNW 11.5 mph 24.2 mph N/A   Overcast
7:50 PM 75.2 °F - 55.4 °F 50% 30.08 in 7.0 mi NNW 9.2 mph - N/A   Overcast
8:46 PM 75.2 °F - 55.4 °F 50% 30.09 in 7.0 mi NW 13.8 mph - N/A   Scattered Clouds
9:42 PM 73.4 °F - 53.6 °F 50% 30.14 in 7.0 mi North 11.5 mph - N/A   Clear
10:00 PM 75 °F - 66 °F 66% 30.13 in 3 mi West 8.9 mph - -  
10:42 PM 73.4 °F - 53.6 °F 50% 30.15 in 7.0 mi North 9.2 mph - N/A   Clear
11:42 PM 73.4 °F - 50.0 °F 44% 30.16 in 7.0 mi NNW 11.5 mph - N/A   Partly Cloudy